Le nostre stazioni meteo in Italia

Pubblicità
Il mio iltempo24.it
Siracusa, Italia (16464): Temperatura & dewpoint: 17.07.2019 06:00:00 - 23.07.2019 06:00:00 (CEST)
Data & Tempo tt [°C] td [°C]
23.07.2019 06:00:00 - -
23.07.2019 05:00:00 21,5 15,3
23.07.2019 04:00:00 22,7 16,6
23.07.2019 03:00:00 23,0 16,7
23.07.2019 02:00:00 22,9 15,6
23.07.2019 01:00:00 25,4 18,8
23.07.2019 00:00:00 24,8 16,7
22.07.2019 23:00:00 25,3 18,2
22.07.2019 22:00:00 26,7 20,0
22.07.2019 21:00:00 27,4 20,7
22.07.2019 20:00:00 28,4 19,6
22.07.2019 19:00:00 29,3 18,4
22.07.2019 18:00:00 29,0 18,4
22.07.2019 17:00:00 30,1 19,4
22.07.2019 16:00:00 29,9 17,7
22.07.2019 15:00:00 29,7 18,4
22.07.2019 14:00:00 29,4 18,2
22.07.2019 13:00:00 30,1 19,4
22.07.2019 12:00:00 29,2 19,2
22.07.2019 11:00:00 28,8 20,5
22.07.2019 10:00:00 28,6 19,8
22.07.2019 09:00:00 27,9 17,1
22.07.2019 08:00:00 23,8 17,9
22.07.2019 07:00:00 21,5 15,7
22.07.2019 06:00:00 20,8 14,8
22.07.2019 05:00:00 21,1 15,1
22.07.2019 04:00:00 22,1 15,6
22.07.2019 03:00:00 24,3 18,4
22.07.2019 02:00:00 25,5 20,9
22.07.2019 01:00:00 25,8 20,3
22.07.2019 00:00:00 23,7 17,1
21.07.2019 23:00:00 24,3 17,7
21.07.2019 22:00:00 25,8 19,6
21.07.2019 21:00:00 26,5 19,3
21.07.2019 20:00:00 27,2 19,5
21.07.2019 19:00:00 28,0 20,0
21.07.2019 18:00:00 29,2 17,0
21.07.2019 17:00:00 29,4 17,2
21.07.2019 16:00:00 30,0 16,7
21.07.2019 15:00:00 29,7 16,5
21.07.2019 14:00:00 29,1 15,9
21.07.2019 13:00:00 28,2 19,9
21.07.2019 12:00:00 28,1 20,3
21.07.2019 11:00:00 28,3 19,7
21.07.2019 10:00:00 27,8 17,9
21.07.2019 09:00:00 26,2 17,2
21.07.2019 08:00:00 24,7 19,5
21.07.2019 07:00:00 21,5 17,6
21.07.2019 06:00:00 20,7 16,4
21.07.2019 05:00:00 21,1 16,8
21.07.2019 04:00:00 21,9 16,8
21.07.2019 03:00:00 22,7 17,8
21.07.2019 02:00:00 22,7 16,6
21.07.2019 01:00:00 24,1 18,0
21.07.2019 00:00:00 24,2 17,8
20.07.2019 23:00:00 25,5 18,6
20.07.2019 22:00:00 26,3 18,6
20.07.2019 21:00:00 26,5 19,6
20.07.2019 20:00:00 27,1 19,1
20.07.2019 19:00:00 27,8 19,3
20.07.2019 18:00:00 27,7 20,0
20.07.2019 17:00:00 27,7 20,7
20.07.2019 16:00:00 - -
20.07.2019 15:00:00 27,6 21,8
20.07.2019 14:00:00 28,0 21,0
20.07.2019 13:00:00 27,2 19,7
20.07.2019 12:00:00 27,6 20,9
20.07.2019 11:00:00 27,8 20,6
20.07.2019 10:00:00 27,2 20,0
20.07.2019 09:00:00 25,2 19,0
20.07.2019 08:00:00 23,0 18,5
20.07.2019 07:00:00 20,5 15,6
20.07.2019 06:00:00 20,3 15,2
20.07.2019 05:00:00 20,5 15,4
20.07.2019 04:00:00 21,1 16,2
20.07.2019 03:00:00 21,8 16,5
20.07.2019 02:00:00 24,7 20,1
20.07.2019 01:00:00 25,1 20,1
20.07.2019 00:00:00 25,6 20,3
19.07.2019 23:00:00 25,5 20,0
19.07.2019 22:00:00 26,1 20,4
19.07.2019 21:00:00 26,8 20,3
19.07.2019 20:00:00 27,2 21,2
19.07.2019 19:00:00 27,5 20,0
19.07.2019 18:00:00 27,0 18,8
19.07.2019 17:00:00 28,1 17,0
19.07.2019 16:00:00 28,1 19,0
19.07.2019 15:00:00 26,9 20,0
19.07.2019 14:00:00 27,5 21,0
19.07.2019 13:00:00 27,0 19,3
19.07.2019 12:00:00 27,3 18,8
19.07.2019 11:00:00 27,1 16,3
19.07.2019 10:00:00 26,6 18,1
19.07.2019 09:00:00 25,9 18,0
19.07.2019 08:00:00 23,4 19,3
19.07.2019 07:00:00 20,9 16,8
19.07.2019 06:00:00 20,7 16,0
19.07.2019 05:00:00 21,7 15,7
19.07.2019 04:00:00 24,9 18,5
19.07.2019 03:00:00 25,1 19,2
19.07.2019 02:00:00 23,2 17,6
19.07.2019 01:00:00 25,4 19,5
19.07.2019 00:00:00 25,6 20,1
18.07.2019 23:00:00 25,9 20,2
18.07.2019 22:00:00 25,9 20,2
18.07.2019 21:00:00 26,5 19,6
18.07.2019 20:00:00 27,1 18,6
18.07.2019 19:00:00 27,2 18,7
18.07.2019 18:00:00 27,0 19,8
18.07.2019 17:00:00 27,2 20,7
18.07.2019 16:00:00 - -
18.07.2019 15:00:00 27,2 19,5
18.07.2019 14:00:00 27,5 18,2
18.07.2019 13:00:00 27,1 20,1
18.07.2019 12:00:00 26,6 20,4
18.07.2019 11:00:00 26,7 19,5
18.07.2019 10:00:00 26,5 19,6
18.07.2019 09:00:00 25,3 19,1
18.07.2019 08:00:00 24,2 20,9
18.07.2019 07:00:00 20,6 16,6
18.07.2019 06:00:00 19,9 16,1
18.07.2019 05:00:00 20,1 16,5
18.07.2019 04:00:00 20,5 16,7
18.07.2019 03:00:00 21,1 17,2
18.07.2019 02:00:00 21,5 17,6
18.07.2019 01:00:00 22,8 19,5
18.07.2019 00:00:00 24,3 20,6
17.07.2019 23:00:00 24,9 20,7
17.07.2019 22:00:00 26,1 21,0
17.07.2019 21:00:00 26,8 18,1
17.07.2019 20:00:00 27,2 18,4
17.07.2019 19:00:00 27,7 16,6
17.07.2019 18:00:00 27,8 17,6
17.07.2019 17:00:00 28,3 17,5
17.07.2019 16:00:00 27,7 17,2
17.07.2019 15:00:00 27,6 17,7
17.07.2019 14:00:00 28,0 16,2
17.07.2019 13:00:00 28,7 13,7
17.07.2019 12:00:00 28,5 11,6
17.07.2019 11:00:00 28,0 14,2
17.07.2019 10:00:00 26,5 14,5
17.07.2019 09:00:00 25,9 16,9
17.07.2019 08:00:00 24,2 16,4
17.07.2019 07:00:00 22,8 14,5
17.07.2019 06:00:00 22,0 14,0

tt = Temperatura
td = dewpoint

Stazioni seguenti

WeatherPro
AMSI
MeteoEarth